Daviess Cnty AP, Washington,, IN

6:14 AM EST on December 06, 2019 (GMT -0500)
Daviess County

Weather History for KDCY - October, 2019

Change the Weather History Date:

Saturday, October 26, 2019

  Actual Average (WUND) Record (WUND)
Temperature  
Mean Temperature 58 °F -  
Max Temperature 66 °F - - (-1)
Min Temperature 50 °F - - (-1)
Degree Days  
Heating Degree Days 7    
Growing Degree Days 8 (Base 50)    
Moisture  
Dew Point 54 °F    
Average Humidity 95    
Maximum Humidity 100    
Minimum Humidity 82    
Precipitation  
Precipitation 1.61 in - - ()
Sea Level Pressure  
Sea Level Pressure 29.77 in    
Wind  
Wind Speed 10 mph (East)    
Max Wind Speed 28 mph    
Max Gust Speed 39 mph    
Visibility 8 miles    
Events Rain    
Averages and records for this station are not official NWS values.
T = Trace of Precipitation, MM = Missing Value Source: NWS Daily Summary

Daily Weather History Graph

Daily Weather History Graph

Search for Another Location

Airport or City:

Astronomy

Oct. 26, 2019 Rise Set
Actual Time 8:08 AM EDT 6:55 PM EDT
Civil Twilight 7:41 AM EDT 7:22 PM EDT
Nautical Twilight 7:10 AM EDT 7:53 PM EDT
Astronomical Twilight 6:39 AM EDT 8:24 PM EDT
Moon 6:05 AM EDT (10/26) 6:29 PM EDT (10/26)
Length of Visible Light 11h 41m
Length of Day
10h 46m
Waning Crescent, 3% of the Moon is Illuminated
Oct 26
Waning Crescent
Oct 27
New
Nov 4
First Quarter
Nov 12
Full
Nov 19
Last Quarter

Hourly Weather History & Observations

Time (EDT) Temp. Dew Point Humidity Pressure Visibility Wind Dir Wind Speed Gust Speed Precip Events Conditions
12:00 AM 50.2 °F 47.3 °F 90% 30.16 in 10.0 mi NE 3.5 mph - N/A   Clear
12:15 AM 50.4 °F 46.8 °F 87% 30.15 in 10.0 mi East 3.5 mph - N/A   Clear
12:35 AM 50.2 °F 46.8 °F 88% 30.15 in 10.0 mi North 4.6 mph - N/A   Clear
12:55 AM 50.4 °F 46.6 °F 87% 30.13 in 10.0 mi ESE 8.1 mph - N/A   Clear
1:15 AM 50.2 °F 46.8 °F 88% 30.13 in 10.0 mi North 6.9 mph - N/A   Clear
1:35 AM 50.5 °F 46.4 °F 86% 30.12 in 10.0 mi East 3.5 mph - N/A   Clear
2:00 AM 50.9 °F 46.6 °F 85% 30.10 in 10.0 mi ENE 4.6 mph - N/A   Mostly Cloudy
2:15 AM 51.4 °F 46.4 °F 83% 30.10 in 10.0 mi NNE 5.8 mph - N/A   Overcast
2:40 AM 51.4 °F 46.4 °F 83% 30.08 in 10.0 mi NE 3.5 mph - N/A   Overcast
2:55 AM 51.8 °F 46.6 °F 82% 30.08 in 10.0 mi NE 4.6 mph - N/A   Overcast
3:15 AM 51.8 °F 46.8 °F 83% 30.07 in 10.0 mi ENE 5.8 mph - N/A   Overcast
3:35 AM 52.0 °F 46.9 °F 83% 30.06 in 10.0 mi NE 6.9 mph - N/A   Overcast
3:50 AM 52.2 °F 47.1 °F 83% 30.05 in 10.0 mi ENE 6.9 mph - N/A   Overcast
4:35 AM 51.8 °F 48.2 °F 88% 30.03 in 10.0 mi ENE 6.9 mph - N/A Rain Rain
4:55 AM 51.4 °F 48.9 °F 91% 30.02 in 10.0 mi NE 5.8 mph - 0.01 in Rain Light Rain
5:15 AM 51.3 °F 50.0 °F 95% 30.01 in 7.0 mi ENE 4.6 mph - N/A   Drizzle
5:30 AM 51.3 °F 50.9 °F 99% 30.01 in 10.0 mi ENE 5.8 mph - 0.01 in Rain Light Rain
5:55 AM 50.9 °F 50.9 °F 100% 29.99 in 7.0 mi ENE 8.1 mph - 0.03 in Rain Heavy Rain
6:15 AM 50.9 °F 50.7 °F 99% 29.97 in 7.0 mi ENE 8.1 mph - 0.01 in Rain Rain
6:30 AM 50.9 °F 50.7 °F 99% 29.96 in 7.0 mi ENE 11.5 mph - 0.03 in Rain Rain
6:55 AM 50.9 °F 50.9 °F 100% 29.94 in 7.0 mi ENE 11.5 mph - 0.07 in Rain Rain
7:20 AM 51.1 °F 50.9 °F 99% 29.92 in 4.0 mi ENE 12.7 mph - 0.08 in Rain Rain
7:35 AM 51.1 °F 50.9 °F 99% 29.91 in 4.0 mi ENE 12.7 mph - 0.16 in Rain Rain
7:55 AM 50.9 °F 50.9 °F 100% 29.91 in 4.0 mi NE 9.2 mph - 0.26 in Rain Heavy Rain
8:15 AM 50.9 °F 50.9 °F 100% 29.90 in 4.0 mi NE 9.2 mph - 0.11 in Rain Heavy Rain
8:35 AM 50.9 °F 50.9 °F 100% 29.89 in 4.0 mi NE 9.2 mph - 0.19 in Rain Rain
8:55 AM 51.1 °F 50.9 °F 99% 29.88 in 3.0 mi ENE 10.4 mph - 0.25 in Rain Rain
9:10 AM 51.1 °F 50.9 °F 99% 29.87 in 5.0 mi ENE 8.1 mph - 0.02 in Rain Rain
9:35 AM 51.4 °F 51.1 °F 99% 29.87 in 1.8 mi ENE 9.2 mph - 0.23 in Rain Rain
9:50 AM 51.8 °F 51.4 °F 99% 29.87 in 3.0 mi ENE 10.4 mph - 0.29 in Rain Rain
10:15 AM 52.2 °F 52.0 °F 99% 29.85 in 5.0 mi ENE 11.5 mph 18.4 mph 0.04 in Rain Rain
10:35 AM 52.3 °F 52.2 °F 99% 29.83 in 5.0 mi East 11.5 mph - 0.10 in Rain Light Rain
10:50 AM 52.3 °F 52.2 °F 99% 29.82 in 5.0 mi East 12.7 mph - 0.15 in Rain Rain
11:15 AM 52.7 °F 52.3 °F 99% 29.80 in 5.0 mi East 13.8 mph - 0.06 in Rain Rain
11:30 AM 53.1 °F 52.9 °F 99% 29.79 in 7.0 mi East 12.7 mph - 0.11 in Rain Rain
12:15 PM 53.8 °F 53.6 °F 99% 29.77 in 5.0 mi East 11.5 mph - 0.05 in Rain Light Rain
12:35 PM 54.1 °F 54.0 °F 99% 29.74 in 7.0 mi East 11.5 mph - 0.09 in Rain Rain
12:55 PM 54.9 °F 54.7 °F 99% 29.72 in 5.0 mi East 10.4 mph - 0.15 in Rain Rain
1:15 PM 55.6 °F 55.4 °F 99% 29.70 in 7.0 mi East 11.5 mph - 0.04 in Rain Light Rain
1:35 PM 56.3 °F 56.3 °F 100% 29.67 in 7.0 mi East 12.7 mph - 0.07 in Rain Light Rain
1:50 PM 56.7 °F 56.5 °F 99% 29.65 in 5.0 mi East 11.5 mph - 0.10 in Rain Rain
2:15 PM 57.9 °F 57.6 °F 99% 29.61 in 4.0 mi East 11.5 mph - 0.04 in Rain Light Rain
2:35 PM 59.7 °F 59.4 °F 99% 29.59 in 3.0 mi ESE 15.0 mph 21.9 mph 0.12 in Rain Rain
2:55 PM 60.3 °F 60.1 °F 99% 29.57 in 4.0 mi ESE 13.8 mph - 0.15 in Rain Rain
3:15 PM 61.3 °F 61.0 °F 99% 29.55 in 7.0 mi ESE 17.3 mph 24.2 mph 0.01 in Rain Light Rain
3:35 PM 62.6 °F 62.2 °F 99% 29.54 in 10.0 mi SE 18.4 mph - 0.02 in Rain Light Rain
3:55 PM 63.1 °F 63.0 °F 99% 29.52 in 10.0 mi SE 15.0 mph 24.2 mph 0.02 in Rain Light Rain
4:15 PM 63.7 °F 63.5 °F 99% 29.50 in 10.0 mi SE 18.4 mph 24.2 mph N/A   Overcast
4:35 PM 64.2 °F 63.9 °F 99% 29.48 in 10.0 mi ESE 19.6 mph 26.5 mph N/A   Overcast
4:55 PM 64.4 °F 64.0 °F 99% 29.47 in 7.0 mi SE 18.4 mph 26.5 mph N/A Rain Light Rain
5:15 PM 64.6 °F 64.4 °F 99% 29.45 in 5.0 mi SE 21.9 mph 26.5 mph N/A Rain Light Rain
5:35 PM 64.4 °F 64.2 °F 99% 29.43 in 10.0 mi ESE 20.7 mph 33.4 mph 0.01 in Rain Light Rain
5:55 PM 65.5 °F 65.3 °F 99% 29.44 in 4.0 mi SSE 26.5 mph 38.0 mph 0.01 in Rain Light Rain
6:15 PM 66.6 °F 64.8 °F 94% 29.43 in 10.0 mi SSW 21.9 mph 39.1 mph 0.01 in   Overcast
6:35 PM 65.5 °F 64.0 °F 95% 29.44 in 10.0 mi SSW 19.6 mph 28.8 mph 0.01 in   Mostly Cloudy
6:55 PM 64.2 °F 63.0 °F 96% 29.46 in 10.0 mi South 18.4 mph 27.6 mph 0.01 in   Scattered Clouds
7:15 PM 63.1 °F 62.6 °F 98% 29.47 in 10.0 mi South 13.8 mph 21.9 mph N/A   Scattered Clouds
7:35 PM 62.8 °F 62.2 °F 98% 29.48 in 10.0 mi South 15.0 mph - N/A   Scattered Clouds
7:55 PM 63.0 °F 60.4 °F 91% 29.50 in 10.0 mi SSW 20.7 mph 35.7 mph N/A   Mostly Cloudy
8:15 PM 61.3 °F 59.0 °F 92% 29.52 in 10.0 mi SW 27.6 mph 35.7 mph N/A   Overcast
8:35 PM 58.5 °F 57.4 °F 96% 29.54 in 10.0 mi SW 24.2 mph 33.4 mph N/A   Overcast
8:55 PM 55.9 °F 55.8 °F 99% 29.55 in 4.0 mi SW 24.2 mph 31.1 mph N/A   Overcast
9:15 PM 54.5 °F 54.3 °F 99% 29.58 in 3.0 mi SW 18.4 mph 29.9 mph N/A Rain Rain
9:35 PM 53.8 °F 53.6 °F 99% 29.59 in 5.0 mi WSW 20.7 mph 29.9 mph N/A   Overcast
9:55 PM 53.8 °F 52.2 °F 94% 29.60 in 10.0 mi SW 17.3 mph 26.5 mph N/A   Overcast
10:15 PM 53.6 °F 51.4 °F 92% 29.61 in 10.0 mi SW 13.8 mph 23.0 mph N/A   Overcast
10:35 PM 53.2 °F 50.9 °F 92% 29.62 in 10.0 mi SW 19.6 mph 26.5 mph N/A   Overcast
10:55 PM 52.9 °F 50.9 °F 93% 29.63 in 10.0 mi WSW 16.1 mph 28.8 mph N/A   Overcast
11:15 PM 52.7 °F 50.0 °F 91% 29.64 in 10.0 mi WSW 18.4 mph 31.1 mph N/A   Overcast
11:35 PM 52.7 °F 49.6 °F 89% 29.66 in 10.0 mi SW 18.4 mph 32.2 mph N/A   Overcast
11:55 PM 52.3 °F 49.1 °F 89% 29.67 in 10.0 mi WSW 18.4 mph 23.0 mph N/A   Overcast